Tracking 25963 objects as of 12-Aug-2022
HD Live streaming from Space Station
objects crossing your sky now

RESURS O1 DEB

Track RESURS O1 DEB now!
10-day predictions


NORAD ID: 49244
Int'l Code: 1994-074FY
Perigee: 590.6 km
Apogee: 597.4 km
Inclination: 97.9 °
Period: 96.4 minutes
Semi major axis: 6965 km
RCS: Unknown
Launch date: November 4, 1994
Source: Commonwealth of Independent States (former USSR) (CIS)
Launch site: TYURATAM MISSILE AND SPACE COMPLEX (TTMTR)

Note: This is SATELLITE DEBRIS
aabbcc
Your satellite tracking list
Your tracking list is empty




NASA's NSSDC Master Catalog

Two Line Element Set (TLE):
1 49244U 94074FY  22223.87671630  .00029806  00000-0  28220-2 0  9997
2 49244  97.9248 276.6767 0004926 133.5577 226.6052 14.93554407 51143
Source of the keplerian elements: AFSPC